Date String (YYYY-MM-DD hh:mm:ss) UTC,Instrument flags,Ambient pressure (hPa),Sample flow (lpm),Bypass flow (lpm),Sample temperature (°C),Ambient temperature (°C),ASC tube jacket temperature (°C),LED temperature (°C),Box temperature (°C),Sample RH (%),Span deviation,Mass concentration (μg/m³),Mass concentration (μg/m³),Mass concentration (μg/m³)
DateTimeUTC,F1_M11,P_M11,Q1_M11,Q2_M11,T1_M11,T2_M11,T3_M11,T4_M11,T5_M11,U1_M11,ZSPAN_M11,X0_M11,X2_M11,X1_M11
2022-07-30 17:00:00,,0829.7,5.00,0.00,29.4,27.5,00.0,38.2,31.3,32.0,0000.0,0012.61,0006.10,0005.43
2022-07-30 17:01:00,,0829.7,5.00,0.00,29.4,27.6,00.0,38.2,31.3,32.2,0000.0,0012.38,0006.15,0005.45
2022-07-30 17:02:00,,0829.7,5.00,0.00,29.4,27.8,00.0,38.2,31.3,32.1,0000.0,0012.31,0006.16,0005.46
2022-07-30 17:03:00,,0829.7,5.01,0.00,29.4,28.0,00.0,38.2,31.4,31.8,0000.0,0012.43,0006.19,0005.47
2022-07-30 17:04:00,,0829.7,5.00,0.00,29.5,28.2,00.0,38.2,31.5,31.7,0000.0,0012.77,0006.22,0005.49
2022-07-30 17:05:00,,0829.6,4.99,0.00,29.5,28.3,00.0,38.2,31.5,32.0,0000.0,0012.75,0006.17,0005.49
2022-07-30 17:06:00,,0830.2,5.00,0.00,29.5,28.1,00.0,38.2,31.5,31.4,0000.0,0011.94,0006.23,0005.52
2022-07-30 17:07:00,,0829.8,4.99,0.00,29.5,27.8,00.0,38.2,31.4,31.6,0000.0,0012.20,0006.22,0005.53
2022-07-30 17:08:00,,0829.6,5.01,0.00,29.5,27.4,00.0,38.2,31.3,31.9,0000.0,0012.25,0006.20,0005.52
2022-07-30 17:09:00,,0829.6,4.99,0.00,29.5,27.3,00.0,38.2,31.3,32.1,0000.0,0011.66,0006.20,0005.53
2022-07-30 17:10:00,,0829.8,5.01,0.00,29.4,27.4,00.0,38.2,31.2,31.9,0000.0,0011.37,0006.24,0005.54
2022-07-30 17:11:00,,0829.6,5.00,0.00,29.4,27.6,00.0,38.1,31.3,31.9,0000.0,0011.25,0006.21,0005.54
2022-07-30 17:12:00,,0829.6,5.00,0.00,29.4,27.8,00.0,38.2,31.3,32.1,0000.0,0011.00,0006.19,0005.54
2022-07-30 17:13:00,,0829.6,5.00,0.00,29.4,27.9,00.0,38.2,31.4,33.1,0000.0,0010.72,0006.18,0005.55
2022-07-30 17:14:00,,0829.6,4.99,0.00,29.5,28.1,00.0,38.2,31.4,32.8,0000.0,0010.52,0006.19,0005.56
2022-07-30 17:15:00,,0829.6,4.99,0.00,29.5,28.3,00.0,38.2,31.5,31.9,0000.0,0010.12,0006.16,0005.55
2022-07-30 17:16:00,,0829.6,5.01,0.00,29.5,28.3,00.0,38.2,31.5,31.5,0000.0,0010.06,0006.16,0005.55
2022-07-30 17:17:00,,0829.6,5.00,0.00,29.5,27.9,00.0,38.2,31.4,31.2,0000.0,0009.85,0006.14,0005.53
2022-07-30 17:18:00,,0829.6,5.00,0.00,29.5,27.3,00.0,38.2,31.3,31.7,0000.0,0009.63,0006.14,0005.54
2022-07-30 17:19:00,,0829.5,4.99,0.00,29.4,27.2,00.0,38.1,31.2,32.1,0000.0,0009.42,0006.14,0005.55
2022-07-30 17:20:00,,0829.6,5.01,0.00,29.4,27.3,00.0,38.1,31.2,32.2,0000.0,0009.67,0006.15,0005.55
2022-07-30 17:21:00,,0829.6,4.99,0.00,29.4,27.4,00.0,38.1,31.2,32.8,0000.0,0010.03,0006.10,0005.55
2022-07-30 17:22:00,,0829.5,4.99,0.00,29.3,27.6,00.0,38.1,31.2,33.4,0000.0,0010.49,0006.07,0005.54
2022-07-30 17:23:00,,0829.6,5.00,0.00,29.4,27.8,00.0,38.1,31.3,33.4,0000.0,0011.05,0006.04,0005.55
2022-07-30 17:24:00,,0829.6,5.01,0.00,29.4,27.9,00.0,38.1,31.3,33.5,0000.0,0011.89,0006.03,0005.56
2022-07-30 17:25:00,,0829.6,5.01,0.00,29.4,28.1,00.0,38.1,31.4,34.0,0000.0,0012.15,0006.04,0005.56
2022-07-30 17:26:00,,0829.5,5.01,0.00,29.4,28.2,00.0,38.2,31.4,33.2,0000.0,0012.16,0006.06,0005.56
2022-07-30 17:27:00,,0829.6,5.00,0.00,29.5,28.3,00.0,38.2,31.5,33.2,0000.0,0012.17,0006.09,0005.57
2022-07-30 17:28:00,,0829.6,5.00,0.00,29.5,27.9,00.0,38.2,31.4,32.6,0000.0,0012.29,0006.14,0005.59
2022-07-30 17:29:00,,0829.6,5.00,0.00,29.4,27.3,00.0,38.1,31.2,33.2,0000.0,0012.98,0006.15,0005.60
2022-07-30 17:30:00,,0829.6,5.00,0.00,29.4,27.1,00.0,38.1,31.2,32.8,0000.0,0013.05,0006.17,0005.62
2022-07-30 17:31:00,,0829.5,5.01,0.00,29.3,27.2,00.0,38.1,31.1,33.3,0000.0,0012.93,0006.15,0005.63
2022-07-30 17:32:00,,0829.5,5.00,0.00,29.3,27.3,00.0,38.1,31.1,33.5,0000.0,0012.60,0006.17,0005.64
2022-07-30 17:33:00,,0829.6,5.00,0.00,29.3,27.5,00.0,38.1,31.2,33.7,0000.0,0012.31,0006.21,0005.65
2022-07-30 17:34:00,,0829.5,4.99,0.00,29.3,27.7,00.0,38.1,31.2,33.3,0000.0,0011.84,0006.27,0005.66
2022-07-30 17:35:00,,0829.5,5.00,0.00,29.3,27.9,00.0,38.1,31.3,33.4,0000.0,0010.92,0006.29,0005.67
2022-07-30 17:36:00,,0829.6,5.00,0.00,29.4,28.0,00.0,38.1,31.3,33.4,0000.0,0010.60,0006.27,0005.67
2022-07-30 17:37:00,,0829.5,5.01,0.00,29.4,28.2,00.0,38.1,31.4,33.5,0000.0,0010.60,0006.26,0005.67
2022-07-30 17:38:00,,0829.5,5.01,0.00,29.4,28.3,00.0,38.2,31.4,33.1,0000.0,0010.84,0006.28,0005.68
2022-07-30 17:39:00,,0829.5,5.00,0.00,29.5,28.1,00.0,38.2,31.4,32.7,0000.0,0010.75,0006.26,0005.69
2022-07-30 17:40:00,,0829.5,5.00,0.00,29.4,27.5,00.0,38.1,31.2,33.4,0000.0,0010.42,0006.24,0005.71
2022-07-30 17:41:00,,0829.5,4.99,0.00,29.4,27.2,00.0,38.1,31.2,33.3,0000.0,0010.41,0006.25,0005.74
2022-07-30 17:42:00,,0829.5,5.01,0.00,29.3,27.2,00.0,38.1,31.1,33.2,0000.0,0010.48,0006.28,0005.76
2022-07-30 17:43:00,,0829.6,4.99,0.00,29.3,27.3,00.0,38.1,31.1,33.4,0000.0,0010.36,0006.28,0005.77
2022-07-30 17:44:00,,0829.6,5.00,0.00,29.3,27.5,00.0,38.1,31.1,33.6,0000.0,0011.06,0006.28,0005.80
2022-07-30 17:45:00,,0829.6,5.01,0.00,29.3,27.7,00.0,38.1,31.2,34.0,0000.0,0011.19,0006.27,0005.81
2022-07-30 17:46:00,,0829.6,5.00,0.00,29.3,27.8,00.0,38.1,31.2,33.5,0000.0,0011.32,0006.27,0005.83
2022-07-30 17:47:00,,0829.7,5.00,0.00,29.3,28.0,00.0,38.1,31.3,33.4,0000.0,0011.38,0006.29,0005.84
2022-07-30 17:48:00,,0829.6,4.99,0.00,29.4,28.1,00.0,38.1,31.3,33.4,0000.0,0011.30,0006.29,0005.86
2022-07-30 17:49:00,,0829.6,5.01,0.00,29.4,28.3,00.0,38.1,31.4,33.9,0000.0,0011.02,0006.25,0005.87
2022-07-30 17:50:00,,0829.5,4.99,0.00,29.4,28.1,00.0,38.1,31.4,33.4,0000.0,0011.35,0006.25,0005.87
2022-07-30 17:51:00,,0829.5,5.00,0.00,29.4,27.5,00.0,38.1,31.3,33.2,0000.0,0011.18,0006.25,0005.86
2022-07-30 17:52:00,,0829.6,4.99,0.00,29.4,27.2,00.0,38.1,31.2,33.9,0000.0,0011.02,0006.27,0005.86
2022-07-30 17:53:00,,0829.6,5.01,0.00,29.3,27.2,00.0,38.1,31.1,33.7,0000.0,0011.40,0006.29,0005.86
2022-07-30 17:54:00,,0829.5,4.99,0.00,29.3,27.3,00.0,38.1,31.0,33.8,0000.0,0011.24,0006.31,0005.86
2022-07-30 17:55:00,,0829.5,5.00,0.00,29.3,27.4,00.0,38.0,31.1,33.8,0000.2,0010.99,0006.31,0005.86
2022-07-30 17:56:00,,0829.6,4.99,0.00,29.3,27.6,00.0,38.0,31.1,33.6,0000.5,0011.06,0006.34,0005.87
2022-07-30 17:57:00,,0829.6,4.99,0.00,29.3,27.8,00.0,38.1,31.2,33.9,0000.7,0011.04,0006.31,0005.86
2022-07-30 17:58:00,,0829.5,5.00,0.00,29.3,28.0,00.0,38.1,31.3,33.2,0000.7,0011.55,0006.33,0005.87
2022-07-30 17:59:00,,0829.5,5.00,0.00,29.4,28.1,00.0,38.1,31.3,33.5,0000.2,0011.72,0006.36,0005.87
